[[{"header":{"parameterUnit":"m.s-1","parameterCategory":1,"la1":30.2992,"la2":30.254,"lo1":-89.0895,"lo2":-89.0443,"dy":0.0025,"dx":0.0025,"nx":19,"ny":19,"refTime":"2026-03-18T21:00:00:Z","depth":0,"parameterNumber":2,"parameterNumberName":"U-component_of_WINDS"},"data":[0,0,0,3.6881,3.6884,3.6985,3.6985,3.7133,3.7134,0,0,0,0,0,0,0,0,0,0,0,3.6864,3.6866,3.6881,3.6884,3.6985,3.6985,3.7132,3.7134,0,0,0,0,0,0,0,0,0,0,0,3.6864,3.6866,3.6867,3.6885,3.6985,3.6985,3.7132,3.7049,0,0,0,0,0,0,0,0,0,0,3.6947,3.6945,3.6865,3.6867,3.6885,3.6985,3.6985,3.7045,3.7054,3.7095,0,3.7136,0,3.7138,3.7145,3.7146,0,0,0,3.6874,3.6938,3.6953,3.6868,3.6886,3.6985,3.6937,3.705,3.706,3.7108,3.7138,3.7143,3.714,3.7146,3.7147,3.7415,3.7416,0,0,3.6869,3.689,3.6945,3.696,3.6948,3.6934,3.694,3.7056,3.709,3.7139,3.7146,3.7143,3.7147,3.7149,3.7413,3.7415,0,0,0,3.6859,3.6886,3.6898,3.6955,3.6972,3.6937,3.6944,3.7085,3.7087,3.7148,3.7144,3.7148,3.715,3.7411,3.7414,3.7515,0,0,0,3.6855,3.6881,3.6896,3.691,3.697,3.703,3.6971,3.7079,3.7092,3.7143,3.7148,3.7152,3.7409,3.7413,3.7508,3.7559,0,0,0,3.6853,3.688,3.6899,3.6911,3.6955,3.7028,3.7036,3.7081,3.709,3.7146,3.7152,3.7408,3.7412,3.7502,3.7549,3.7632,0,0,0,3.6857,3.6992,3.6901,3.705,3.6955,3.7091,3.7035,3.7136,3.7197,3.7149,3.741,3.7414,3.75,3.7543,3.7625,3.7702,3.7737,0,0,3.7039,3.7015,3.71,3.7022,3.7179,3.7074,3.7245,3.7282,3.7269,3.7366,3.7372,3.7511,3.7549,3.763,3.7933,3.7961,0,0,0,3.7164,3.7225,3.7262,3.732,3.735,3.7377,3.7385,3.7397,3.7478,3.7324,3.7564,3.7586,3.7633,3.7669,3.7692,3.7729,3.7432,3.7432,3.7431,3.7451,3.7424,3.7561,3.7545,3.7601,3.7605,3.7646,3.7663,3.7624,3.768,3.7708,3.7895,3.7938,3.7955,3.7994,3.775,3.775,3.775,3.7751,3.771,3.7789,3.7728,3.7839,3.7809,3.7901,3.7908,3.7875,3.7954,3.7873,3.7913,3.7824,3.7987,3.8019,3.7758,3.7757,3.7756,3.7755,3.7755,3.7891,3.7924,3.7936,3.8011,3.8072,3.8051,3.8128,3.81,3.8074,3.8114,3.8136,3.8134,3.8125,3.8127,3.8128,3.8128,3.8129,3.8129,3.813,3.8074,3.8083,3.8151,3.819,3.8219,3.8254,3.8256,3.8284,3.8307,3.8279,3.8279,3.8229,3.801,3.7952,3.8139,3.8138,3.8136,3.8135,3.8135,3.8341,3.8274,3.838,3.8409,3.8448,3.8506,3.8468,3.8526,3.8545,3.8583,3.8524,3.8368,3.8341,3.8322,3.8273,3.8533,3.8533,3.8533,3.8533,3.849,3.8474,3.8571,3.8618,3.8662,3.8635,3.8751,3.8751,3.8742,3.8751,3.871,3.8645,3.8627,3.861,3.8585,3.8539,3.8861,3.8861,3.8861,3.865,3.8635,3.874,3.8728,3.8755,3.8777,3.8883,3.8938,3.8914,3.8874,3.8756,3.8742,3.8637,3.8605,3.856,3.8522,3.8437,0,0]},{"header":{"parameterUnit":"m.s-1","parameterCategory":1,"la1":30.2992,"la2":30.254,"lo1":-89.0895,"lo2":-89.0443,"dy":0.0025,"dx":0.0025,"nx":19,"ny":19,"refTime":"2026-03-18T21:00:00:Z","depth":0,"parameterNumber":3,"parameterNumberName":"V-component_of_WINDS"},"data":[0,0,0,2.0879,2.0879,2.0898,2.0898,2.0929,2.0929,0,0,0,0,0,0,0,0,0,0,0,2.0879,2.088,2.0879,2.088,2.0898,2.0898,2.0929,2.0929,0,0,0,0,0,0,0,0,0,0,0,2.0879,2.088,2.088,2.088,2.0898,2.0898,2.0929,2.0912,0,0,0,0,0,0,0,0,0,0,2.0892,2.0899,2.0879,2.088,2.088,2.0898,2.0898,2.0911,2.0913,2.0924,0,2.0936,0,2.0933,2.0932,2.0932,0,0,0,2.0875,2.0897,2.0897,2.088,2.088,2.0898,2.0889,2.0912,2.0914,2.0926,2.0937,2.0938,2.0934,2.0932,2.0932,2.1011,2.1012,0,0,2.0874,2.0886,2.0896,2.0899,2.0898,2.0888,2.0889,2.0913,2.0925,2.0937,2.0938,2.0934,2.0932,2.0933,2.1011,2.1012,0,0,0,2.0874,2.0885,2.0884,2.0898,2.0901,2.0889,2.089,2.0924,2.0922,2.0938,2.0935,2.0933,2.0933,2.101,2.1011,2.105,0,0,0,2.0873,2.0885,2.0884,2.0891,2.0901,2.0913,2.09,2.0921,2.0923,2.0935,2.0933,2.0933,2.101,2.1011,2.1048,2.1067,0,0,0,2.0876,2.0885,2.089,2.0892,2.0901,2.0912,2.0912,2.0921,2.0921,2.0932,2.0933,2.1009,2.101,2.1046,2.1063,2.1089,0,0,0,2.0882,2.0927,2.0891,2.0939,2.0901,2.0937,2.0912,2.0939,2.0953,2.0933,2.101,2.1011,2.1045,2.1061,2.1087,2.1112,2.1125,0,0,2.0945,2.0935,2.0961,2.093,2.0976,2.0933,2.0984,2.0986,2.0977,2.1,2.1001,2.1049,2.1063,2.1089,2.1191,2.1201,0,0,0,2.0985,2.1004,2.1014,2.1028,2.103,2.1032,2.1025,2.1025,2.1044,2.0992,2.1066,2.1074,2.1088,2.11,2.1108,2.1119,2.1017,2.1017,2.1017,2.109,2.1074,2.1116,2.1102,2.1116,2.1106,2.1115,2.1113,2.1094,2.1112,2.1118,2.1183,2.1197,2.1203,2.1214,2.1132,2.1132,2.1132,2.1132,2.1178,2.1201,2.1173,2.1204,2.1186,2.1211,2.1203,2.1188,2.1207,2.1177,2.1189,2.1157,2.1214,2.1223,2.1135,2.1134,2.1134,2.1134,2.1134,2.1244,2.1252,2.1251,2.1267,2.1281,2.1264,2.1283,2.1267,2.1251,2.1263,2.1266,2.1266,2.1261,2.1266,2.1267,2.1267,2.1267,2.1267,2.1267,2.1312,2.1309,2.1328,2.1332,2.1336,2.1341,2.133,2.1334,2.1333,2.1319,2.1319,2.1297,2.1223,2.1204,2.1271,2.127,2.127,2.1269,2.1269,2.1404,2.138,2.1409,2.1414,2.1415,2.1427,2.1406,2.1414,2.1415,2.1424,2.1398,2.1348,2.1336,2.1329,2.1313,2.1404,2.1404,2.1404,2.1404,2.1458,2.1451,2.1474,2.1482,2.1488,2.1471,2.15,2.1491,2.1477,2.1476,2.146,2.1438,2.1432,2.1423,2.1415,2.1399,2.151,2.151,2.151,2.1513,2.1504,2.1534,2.152,2.1519,2.1518,2.1544,2.1553,2.1532,2.1514,2.1473,2.1469,2.1432,2.1422,2.1402,2.1389,2.136,0,0]}]]